Year,Month,Day,Hour,Minute,Value (Times are PST for temperature in C)
2015,09,22,00,00,7.80
2015,09,22,00,01,7.80
2015,09,22,00,02,7.80
2015,09,22,00,03,7.80
2015,09,22,00,04,7.80
2015,09,22,00,05,7.80
2015,09,22,00,06,7.80
2015,09,22,00,07,7.70
2015,09,22,00,08,7.70
2015,09,22,00,09,7.70
2015,09,22,00,10,7.70
2015,09,22,00,11,7.70
2015,09,22,00,12,7.70
2015,09,22,00,13,7.70
2015,09,22,00,14,7.70
2015,09,22,00,15,7.70
2015,09,22,00,16,7.70
2015,09,22,00,17,7.70
2015,09,22,00,18,7.70
2015,09,22,00,19,7.70
2015,09,22,00,20,7.70
2015,09,22,00,21,7.70
2015,09,22,00,22,7.70
2015,09,22,00,23,7.60
2015,09,22,00,24,7.60
2015,09,22,00,25,7.60
2015,09,22,00,26,7.60
2015,09,22,00,27,7.50
2015,09,22,00,28,7.50
2015,09,22,00,29,7.50
2015,09,22,00,30,7.40
2015,09,22,00,31,7.40
2015,09,22,00,32,7.40
2015,09,22,00,33,7.40
2015,09,22,00,34,7.40
2015,09,22,00,35,7.40
2015,09,22,00,36,7.30
2015,09,22,00,37,7.30
2015,09,22,00,38,7.30
2015,09,22,00,39,7.30
2015,09,22,00,40,7.30
2015,09,22,00,41,7.30
2015,09,22,00,42,7.20
2015,09,22,00,43,7.20
2015,09,22,00,44,7.20
2015,09,22,00,45,7.20
2015,09,22,00,46,7.30
2015,09,22,00,47,7.30
2015,09,22,00,48,7.30
2015,09,22,00,49,7.30
2015,09,22,00,50,7.30
2015,09,22,00,51,7.20
2015,09,22,00,52,7.20
2015,09,22,00,53,7.20
2015,09,22,00,54,7.20
2015,09,22,00,55,7.20
2015,09,22,00,56,7.30
2015,09,22,00,57,7.30
2015,09,22,00,58,7.30
2015,09,22,00,59,7.30
2015,09,22,01,00,7.30
2015,09,22,01,01,7.30
2015,09,22,01,02,7.30
2015,09,22,01,03,7.30
2015,09,22,01,04,7.30
2015,09,22,01,05,7.30
2015,09,22,01,06,7.30
2015,09,22,01,07,7.20
2015,09,22,01,08,7.20
2015,09,22,01,09,7.20
2015,09,22,01,10,7.20
2015,09,22,01,11,7.20
2015,09,22,01,12,7.20
2015,09,22,01,13,7.20
2015,09,22,01,14,7.20
2015,09,22,01,15,7.20
2015,09,22,01,16,7.20
2015,09,22,01,17,7.20
2015,09,22,01,18,7.20
2015,09,22,01,19,7.20
2015,09,22,01,20,7.20
2015,09,22,01,21,7.20
2015,09,22,01,22,7.20
2015,09,22,01,23,7.20
2015,09,22,01,24,7.20
2015,09,22,01,25,7.20
2015,09,22,01,26,7.10
2015,09,22,01,27,7.10
2015,09,22,01,28,7.10
2015,09,22,01,29,7.10
2015,09,22,01,30,7.10
2015,09,22,01,31,7.10
2015,09,22,01,32,7.10
2015,09,22,01,33,7.10
2015,09,22,01,34,7.00
2015,09,22,01,35,7.00
2015,09,22,01,36,7.00
2015,09,22,01,37,7.00
2015,09,22,01,38,6.90
2015,09,22,01,39,6.90
2015,09,22,01,40,6.90
2015,09,22,01,41,6.90
2015,09,22,01,42,6.90
2015,09,22,01,43,6.90
2015,09,22,01,44,6.90
2015,09,22,01,45,6.90
2015,09,22,01,46,6.90
2015,09,22,01,47,6.90
2015,09,22,01,48,6.90
2015,09,22,01,49,6.90
2015,09,22,01,50,6.90
2015,09,22,01,51,6.90
2015,09,22,01,52,6.90
2015,09,22,01,53,6.80
2015,09,22,01,54,6.80
2015,09,22,01,55,6.80
2015,09,22,01,56,6.80
2015,09,22,01,57,6.80
2015,09,22,01,58,6.70
2015,09,22,01,59,6.70
2015,09,22,02,00,6.70
2015,09,22,02,01,6.70
2015,09,22,02,02,6.70
2015,09,22,02,03,6.70
2015,09,22,02,04,6.70
2015,09,22,02,05,6.70
2015,09,22,02,06,6.70
2015,09,22,02,07,6.70
2015,09,22,02,08,6.70
2015,09,22,02,09,6.70
2015,09,22,02,10,6.60
2015,09,22,02,11,6.70
2015,09,22,02,12,6.70
2015,09,22,02,13,6.70
2015,09,22,02,14,6.70
2015,09,22,02,15,6.70
2015,09,22,02,16,6.60
2015,09,22,02,17,6.60
2015,09,22,02,18,6.60
2015,09,22,02,19,6.60
2015,09,22,02,20,6.60
2015,09,22,02,21,6.60
2015,09,22,02,22,6.50
2015,09,22,02,23,6.50
2015,09,22,02,24,6.50
2015,09,22,02,25,6.40
2015,09,22,02,26,6.40
2015,09,22,02,27,6.40
2015,09,22,02,28,6.40
2015,09,22,02,29,6.40
2015,09,22,02,30,6.40
2015,09,22,02,31,6.30
2015,09,22,02,32,6.30
2015,09,22,02,33,6.30
2015,09,22,02,34,6.30
2015,09,22,02,35,6.30
2015,09,22,02,36,6.20
2015,09,22,02,37,6.20
2015,09,22,02,38,6.20
2015,09,22,02,39,6.20
2015,09,22,02,40,6.20
2015,09,22,02,41,6.10
2015,09,22,02,42,6.10
2015,09,22,02,43,6.10
2015,09,22,02,44,6.10
2015,09,22,02,45,6.10
2015,09,22,02,46,6.10
2015,09,22,02,47,6.10
2015,09,22,02,48,6.10
2015,09,22,02,49,6.10
2015,09,22,02,50,6.10
2015,09,22,02,51,6.10
2015,09,22,02,52,6.10
2015,09,22,02,53,6.10
2015,09,22,02,54,6.10
2015,09,22,02,55,6.10
2015,09,22,02,56,6.10
2015,09,22,02,57,6.10
2015,09,22,02,58,6.10
2015,09,22,02,59,6.10
2015,09,22,03,00,6.10
2015,09,22,03,01,6.10
2015,09,22,03,02,6.10
2015,09,22,03,03,6.10
2015,09,22,03,04,6.10
2015,09,22,03,05,6.10
2015,09,22,03,06,6.10
2015,09,22,03,07,6.10
2015,09,22,03,08,6.10
2015,09,22,03,09,6.10
2015,09,22,03,10,6.10
2015,09,22,03,11,6.20
2015,09,22,03,12,6.20
2015,09,22,03,13,6.20
2015,09,22,03,14,6.20
2015,09,22,03,15,6.20
2015,09,22,03,16,6.20
2015,09,22,03,17,6.20
2015,09,22,03,18,6.10
2015,09,22,03,19,6.10
2015,09,22,03,20,6.10
2015,09,22,03,21,6.00
2015,09,22,03,22,6.00
2015,09,22,03,23,6.00
2015,09,22,03,24,6.00
2015,09,22,03,25,6.00
2015,09,22,03,26,6.10
2015,09,22,03,27,6.10
2015,09,22,03,28,6.10
2015,09,22,03,29,6.10
2015,09,22,03,30,6.10
2015,09,22,03,31,6.10
2015,09,22,03,32,6.00
2015,09,22,03,33,6.00
2015,09,22,03,34,5.90
2015,09,22,03,35,5.90
2015,09,22,03,36,5.90
2015,09,22,03,37,5.80
2015,09,22,03,38,5.80
2015,09,22,03,39,5.80
2015,09,22,03,40,5.70
2015,09,22,03,41,5.70
2015,09,22,03,42,5.70
2015,09,22,03,43,5.60
2015,09,22,03,44,5.60
2015,09,22,03,45,5.60
2015,09,22,03,46,5.60
2015,09,22,03,47,5.60
2015,09,22,03,48,5.60
2015,09,22,03,49,5.50
2015,09,22,03,50,5.50
2015,09,22,03,51,5.50
2015,09,22,03,52,5.50
2015,09,22,03,53,5.50
2015,09,22,03,54,5.40
2015,09,22,03,55,5.40
2015,09,22,03,56,5.40
2015,09,22,03,57,5.40
2015,09,22,03,58,5.40
2015,09,22,03,59,5.40
2015,09,22,04,00,5.40
2015,09,22,04,01,5.40
2015,09,22,04,02,5.40
2015,09,22,04,03,5.40
2015,09,22,04,04,5.40
2015,09,22,04,05,5.40
2015,09,22,04,06,5.40
2015,09,22,04,07,5.40
2015,09,22,04,08,5.40
2015,09,22,04,09,5.40
2015,09,22,04,10,5.40
2015,09,22,04,11,5.40
2015,09,22,04,12,5.40
2015,09,22,04,13,5.40
2015,09,22,04,14,5.30
2015,09,22,04,15,5.40
2015,09,22,04,16,5.30
2015,09,22,04,17,5.30
2015,09,22,04,18,5.40
2015,09,22,04,19,5.40
2015,09,22,04,20,5.40
2015,09,22,04,21,5.40
2015,09,22,04,22,5.40
2015,09,22,04,23,5.30
2015,09,22,04,24,5.30
2015,09,22,04,25,5.30
2015,09,22,04,26,5.30
2015,09,22,04,27,5.30
2015,09,22,04,28,5.30
2015,09,22,04,29,5.30
2015,09,22,04,30,5.30
2015,09,22,04,31,5.30
2015,09,22,04,32,5.40
2015,09,22,04,33,5.40
2015,09,22,04,34,5.40
2015,09,22,04,35,5.40
2015,09,22,04,36,5.40
2015,09,22,04,37,5.30
2015,09,22,04,38,5.30
2015,09,22,04,39,5.30
2015,09,22,04,40,5.30
2015,09,22,04,41,5.20
2015,09,22,04,42,5.20
2015,09,22,04,43,5.20
2015,09,22,04,44,5.20
2015,09,22,04,45,5.20
2015,09,22,04,46,5.10
2015,09,22,04,47,5.10
2015,09,22,04,48,5.10
2015,09,22,04,49,5.10
2015,09,22,04,50,5.10
2015,09,22,04,51,5.10
2015,09,22,04,52,5.10
2015,09,22,04,53,5.10
2015,09,22,04,54,5.10
2015,09,22,04,55,5.10
2015,09,22,04,56,5.10
2015,09,22,04,57,5.10
2015,09,22,04,58,5.10
2015,09,22,04,59,5.10
2015,09,22,05,00,5.10
2015,09,22,05,01,5.10
2015,09,22,05,02,5.10
2015,09,22,05,03,5.10
2015,09,22,05,04,5.10
2015,09,22,05,05,5.10
2015,09,22,05,06,5.10
2015,09,22,05,07,5.10
2015,09,22,05,08,5.10
2015,09,22,05,09,5.10
2015,09,22,05,10,5.10
2015,09,22,05,11,5.10
2015,09,22,05,12,5.10
2015,09,22,05,13,5.10
2015,09,22,05,14,5.00
2015,09,22,05,15,5.00
2015,09,22,05,16,5.00
2015,09,22,05,17,5.00
2015,09,22,05,18,5.00
2015,09,22,05,19,5.00
2015,09,22,05,20,5.00
2015,09,22,05,21,5.00
2015,09,22,05,22,5.00
2015,09,22,05,23,5.00
2015,09,22,05,24,5.00
2015,09,22,05,25,4.90
2015,09,22,05,26,4.90
2015,09,22,05,27,4.90
2015,09,22,05,28,4.90
2015,09,22,05,29,4.90
2015,09,22,05,30,4.80
2015,09,22,05,31,4.80
2015,09,22,05,32,4.80
2015,09,22,05,33,4.80
2015,09,22,05,34,4.80
2015,09,22,05,35,4.80
2015,09,22,05,36,4.80
2015,09,22,05,37,4.80
2015,09,22,05,38,4.80
2015,09,22,05,39,4.80
2015,09,22,05,40,4.80
2015,09,22,05,41,4.80
2015,09,22,05,42,4.80
2015,09,22,05,43,4.80
2015,09,22,05,44,4.80
2015,09,22,05,45,4.80
2015,09,22,05,46,4.80
2015,09,22,05,47,4.80
2015,09,22,05,48,4.80
2015,09,22,05,49,4.80
2015,09,22,05,50,4.70
2015,09,22,05,51,4.70
2015,09,22,05,52,4.70
2015,09,22,05,53,4.70
2015,09,22,05,54,4.70
2015,09,22,05,55,4.70
2015,09,22,05,56,4.70
2015,09,22,05,57,4.70
2015,09,22,05,58,4.70
2015,09,22,05,59,4.70
2015,09,22,06,00,4.70
2015,09,22,06,01,4.70
2015,09,22,06,02,4.70
2015,09,22,06,03,4.70
2015,09,22,06,04,4.70
2015,09,22,06,05,4.80
2015,09,22,06,06,4.80
2015,09,22,06,07,4.80
2015,09,22,06,08,4.80
2015,09,22,06,09,4.80
2015,09,22,06,10,4.80
2015,09,22,06,11,4.70
2015,09,22,06,12,4.70
2015,09,22,06,13,4.70
2015,09,22,06,14,4.70
2015,09,22,06,15,4.70
2015,09,22,06,16,4.70
2015,09,22,06,17,4.70
2015,09,22,06,18,4.70
2015,09,22,06,19,4.70
2015,09,22,06,20,4.70
2015,09,22,06,21,4.70
2015,09,22,06,22,4.70
2015,09,22,06,23,4.70
2015,09,22,06,24,4.60
2015,09,22,06,25,4.60
2015,09,22,06,26,4.60
2015,09,22,06,27,4.60
2015,09,22,06,28,4.60
2015,09,22,06,29,4.60
2015,09,22,06,30,4.60
2015,09,22,06,31,4.50
2015,09,22,06,32,4.50
2015,09,22,06,33,4.40
2015,09,22,06,34,4.40
2015,09,22,06,35,4.40
2015,09,22,06,36,4.40
2015,09,22,06,37,4.40
2015,09,22,06,38,4.40
2015,09,22,06,39,4.40
2015,09,22,06,40,4.40
2015,09,22,06,41,4.40
2015,09,22,06,42,4.40
2015,09,22,06,43,4.40
2015,09,22,06,44,4.40
2015,09,22,06,45,4.40
2015,09,22,06,46,4.40
2015,09,22,06,47,4.50
2015,09,22,06,48,4.50
2015,09,22,06,49,4.60
2015,09,22,06,50,4.60
2015,09,22,06,51,4.60
2015,09,22,06,52,4.60
2015,09,22,06,53,4.60
2015,09,22,06,54,4.60
2015,09,22,06,55,4.60
2015,09,22,06,56,4.60
2015,09,22,06,57,4.60
2015,09,22,06,58,4.60
2015,09,22,06,59,4.60
2015,09,22,07,00,4.60
2015,09,22,07,01,4.60
2015,09,22,07,02,4.50
2015,09,22,07,03,4.50
2015,09,22,07,04,4.50
2015,09,22,07,05,4.60
2015,09,22,07,06,4.60
2015,09,22,07,07,4.60
2015,09,22,07,08,4.60
2015,09,22,07,09,4.60
2015,09,22,07,10,4.50
2015,09,22,07,11,4.50
2015,09,22,07,12,4.50
2015,09,22,07,13,4.50
2015,09,22,07,14,4.50
2015,09,22,07,15,4.40
2015,09,22,07,16,4.40
2015,09,22,07,17,4.40
2015,09,22,07,18,4.50
2015,09,22,07,19,4.50
2015,09,22,07,20,4.50
2015,09,22,07,21,4.60
2015,09,22,07,22,4.60
2015,09,22,07,23,4.70
2015,09,22,07,24,4.70
2015,09,22,07,25,4.80
2015,09,22,07,26,4.80
2015,09,22,07,27,4.80
2015,09,22,07,28,4.80
2015,09,22,07,29,4.90
2015,09,22,07,30,4.90
2015,09,22,07,31,4.90
2015,09,22,07,32,5.00
2015,09,22,07,33,5.00
2015,09,22,07,34,5.00
2015,09,22,07,35,5.10
2015,09,22,07,36,5.10
2015,09,22,07,37,5.10
2015,09,22,07,38,5.10
2015,09,22,07,39,5.10
2015,09,22,07,40,5.10
2015,09,22,07,41,5.10
2015,09,22,07,42,5.10
2015,09,22,07,43,5.10
2015,09,22,07,44,5.20
2015,09,22,07,45,5.20
2015,09,22,07,46,5.20
2015,09,22,07,47,5.30
2015,09,22,07,48,5.40
2015,09,22,07,49,5.40
2015,09,22,07,50,5.50
2015,09,22,07,51,5.60
2015,09,22,07,52,5.70
2015,09,22,07,53,5.70
2015,09,22,07,54,5.80
2015,09,22,07,55,5.80
2015,09,22,07,56,5.80
2015,09,22,07,57,5.80
2015,09,22,07,58,5.90
2015,09,22,07,59,5.90
2015,09,22,08,00,6.00
2015,09,22,08,01,6.00
2015,09,22,08,02,6.10
2015,09,22,08,03,6.20
2015,09,22,08,04,6.20
2015,09,22,08,05,6.30
2015,09,22,08,06,6.30
2015,09,22,08,07,6.30
2015,09,22,08,08,6.40
2015,09,22,08,09,6.50
2015,09,22,08,10,6.60
2015,09,22,08,11,6.60
2015,09,22,08,12,6.70
2015,09,22,08,13,6.80
2015,09,22,08,14,6.80
2015,09,22,08,15,6.90
2015,09,22,08,16,6.90
2015,09,22,08,17,6.90
2015,09,22,08,18,7.00
2015,09,22,08,19,7.00
2015,09,22,08,20,7.10
2015,09,22,08,21,7.10
2015,09,22,08,22,7.20
2015,09,22,08,23,7.30
2015,09,22,08,24,7.40
2015,09,22,08,25,7.50
2015,09,22,08,26,7.60
2015,09,22,08,27,7.70
2015,09,22,08,28,7.80
2015,09,22,08,29,7.90
2015,09,22,08,30,8.00
2015,09,22,08,31,8.10
2015,09,22,08,32,8.20
2015,09,22,08,33,8.30
2015,09,22,08,34,8.30
2015,09,22,08,35,8.40
2015,09,22,08,36,8.50
2015,09,22,08,37,8.50
2015,09,22,08,38,8.60
2015,09,22,08,39,8.60
2015,09,22,08,40,8.70
2015,09,22,08,41,8.70
2015,09,22,08,42,8.80
2015,09,22,08,43,8.80
2015,09,22,08,44,8.90
2015,09,22,08,45,8.90
2015,09,22,08,46,9.00
2015,09,22,08,47,9.10
2015,09,22,08,48,9.10
2015,09,22,08,49,9.20
2015,09,22,08,50,9.20
2015,09,22,08,51,9.30
2015,09,22,08,52,9.30
2015,09,22,08,53,9.40
2015,09,22,08,54,9.40
2015,09,22,08,55,9.50
2015,09,22,08,56,9.60
2015,09,22,08,57,9.70
2015,09,22,08,58,9.70
2015,09,22,08,59,9.80
2015,09,22,09,00,9.90
2015,09,22,09,01,10.00
2015,09,22,09,02,10.10
2015,09,22,09,03,10.20
2015,09,22,09,04,10.30
2015,09,22,09,05,10.40
2015,09,22,09,06,10.50
2015,09,22,09,07,10.60
2015,09,22,09,08,10.70
2015,09,22,09,09,10.70
2015,09,22,09,10,10.80
2015,09,22,09,11,10.90
2015,09,22,09,12,11.00
2015,09,22,09,13,11.10
2015,09,22,09,14,11.10
2015,09,22,09,15,11.20
2015,09,22,09,16,11.20
2015,09,22,09,17,11.30
2015,09,22,09,18,11.40
2015,09,22,09,19,11.50
2015,09,22,09,20,11.60
2015,09,22,09,21,11.70
2015,09,22,09,22,11.80
2015,09,22,09,23,12.00
2015,09,22,09,24,12.10
2015,09,22,09,25,12.20
2015,09,22,09,26,12.30
2015,09,22,09,27,12.30
2015,09,22,09,28,12.40
2015,09,22,09,29,12.40
2015,09,22,09,30,12.30
2015,09,22,09,31,12.30
2015,09,22,09,32,12.30
2015,09,22,09,33,12.30
2015,09,22,09,34,12.30
2015,09,22,09,35,12.30
2015,09,22,09,36,12.30
2015,09,22,09,37,12.30
2015,09,22,09,38,12.30
2015,09,22,09,39,12.30
2015,09,22,09,40,12.30
2015,09,22,09,41,12.30
2015,09,22,09,42,12.40
2015,09,22,09,43,12.50
2015,09,22,09,44,12.60
2015,09,22,09,45,12.60
2015,09,22,09,46,12.80
2015,09,22,09,47,12.80
2015,09,22,09,48,12.80
2015,09,22,09,49,12.90
2015,09,22,09,50,12.80
2015,09,22,09,51,12.80
2015,09,22,09,52,12.80
2015,09,22,09,53,12.80
2015,09,22,09,54,12.80
2015,09,22,09,55,12.90
2015,09,22,09,56,13.00
2015,09,22,09,57,13.00
2015,09,22,09,58,13.00
2015,09,22,09,59,12.90
2015,09,22,10,00,12.90
2015,09,22,10,01,13.00
2015,09,22,10,02,13.00
2015,09,22,10,03,13.00
2015,09,22,10,04,13.00
2015,09,22,10,05,13.00
2015,09,22,10,06,13.10
2015,09,22,10,07,13.20
2015,09,22,10,08,13.20
2015,09,22,10,09,13.30
2015,09,22,10,10,13.30
2015,09,22,10,11,13.30
2015,09,22,10,12,13.30
2015,09,22,10,13,13.30
2015,09,22,10,14,13.30
2015,09,22,10,15,13.30
2015,09,22,10,16,13.30
2015,09,22,10,17,13.30
2015,09,22,10,18,13.40
2015,09,22,10,19,13.40
2015,09,22,10,20,13.50
2015,09,22,10,21,13.60
2015,09,22,10,22,13.70
2015,09,22,10,23,13.70
2015,09,22,10,24,13.80
2015,09,22,10,25,13.80
2015,09,22,10,26,13.80
2015,09,22,10,27,13.80
2015,09,22,10,28,13.70
2015,09,22,10,29,13.70
2015,09,22,10,30,13.70
2015,09,22,10,31,13.70
2015,09,22,10,32,13.70
2015,09,22,10,33,13.80
2015,09,22,10,34,13.80
2015,09,22,10,35,13.80
2015,09,22,10,36,13.70
2015,09,22,10,37,13.70
2015,09,22,10,38,13.70
2015,09,22,10,39,13.70
2015,09,22,10,40,13.80
2015,09,22,10,41,13.80
2015,09,22,10,42,13.80
2015,09,22,10,43,13.90
2015,09,22,10,44,13.90
2015,09,22,10,45,13.90
2015,09,22,10,46,13.90
2015,09,22,10,47,13.90
2015,09,22,10,48,13.90
2015,09,22,10,49,14.00
2015,09,22,10,50,14.10
2015,09,22,10,51,14.20
2015,09,22,10,52,14.20
2015,09,22,10,53,14.30
2015,09,22,10,54,14.30
2015,09,22,10,55,14.40
2015,09,22,10,56,14.50
2015,09,22,10,57,14.60
2015,09,22,10,58,14.70
2015,09,22,10,59,14.80
2015,09,22,11,00,14.80
2015,09,22,11,01,14.80
2015,09,22,11,02,14.80
2015,09,22,11,03,14.90
2015,09,22,11,04,14.90
2015,09,22,11,05,14.90
2015,09,22,11,06,15.00
2015,09,22,11,07,15.00
2015,09,22,11,08,15.00
2015,09,22,11,09,15.00
2015,09,22,11,10,15.10
2015,09,22,11,11,15.20
2015,09,22,11,12,15.20
2015,09,22,11,13,15.20
2015,09,22,11,14,15.20
2015,09,22,11,15,15.20
2015,09,22,11,16,15.10
2015,09,22,11,17,15.00
2015,09,22,11,18,14.90
2015,09,22,11,19,14.80
2015,09,22,11,20,14.80
2015,09,22,11,21,14.90
2015,09,22,11,22,14.90
2015,09,22,11,23,14.90
2015,09,22,11,24,14.90
2015,09,22,11,25,14.90
2015,09,22,11,26,15.00
2015,09,22,11,27,15.00
2015,09,22,11,28,14.90
2015,09,22,11,29,15.00
2015,09,22,11,30,15.00
2015,09,22,11,31,15.00
2015,09,22,11,32,15.00
2015,09,22,11,33,15.00
2015,09,22,11,34,14.90
2015,09,22,11,35,15.00
2015,09,22,11,36,15.10
2015,09,22,11,37,15.20
2015,09,22,11,38,15.20
2015,09,22,11,39,15.30
2015,09,22,11,40,15.20
2015,09,22,11,41,15.10
2015,09,22,11,42,15.10
2015,09,22,11,43,15.10
2015,09,22,11,44,15.10
2015,09,22,11,45,15.20
2015,09,22,11,46,15.30
2015,09,22,11,47,15.40
2015,09,22,11,48,15.40
2015,09,22,11,49,15.30
2015,09,22,11,50,15.30
2015,09,22,11,51,15.20
2015,09,22,11,52,15.20
2015,09,22,11,53,15.20
2015,09,22,11,54,15.30
2015,09,22,11,55,15.20
2015,09,22,11,56,15.20
2015,09,22,11,57,15.30
2015,09,22,11,58,15.30
2015,09,22,11,59,15.30
2015,09,22,12,00,15.40
2015,09,22,12,01,15.50
2015,09,22,12,02,15.50
2015,09,22,12,03,15.40
2015,09,22,12,04,15.30
2015,09,22,12,05,15.20
2015,09,22,12,06,15.20
2015,09,22,12,07,15.20
2015,09,22,12,08,15.20
2015,09,22,12,09,15.30
2015,09,22,12,10,15.30
2015,09,22,12,11,15.30
2015,09,22,12,12,15.40
2015,09,22,12,13,15.50
2015,09,22,12,14,15.60
2015,09,22,12,15,15.70
2015,09,22,12,16,15.70
2015,09,22,12,17,15.70
2015,09,22,12,18,15.60
2015,09,22,12,19,15.60
2015,09,22,12,20,15.60
2015,09,22,12,21,15.70
2015,09,22,12,22,15.70
2015,09,22,12,23,15.70
2015,09,22,12,24,15.80
2015,09,22,12,25,15.80
2015,09,22,12,26,15.70
2015,09,22,12,27,15.50
2015,09,22,12,28,15.50
2015,09,22,12,29,15.50
2015,09,22,12,30,15.50
2015,09,22,12,31,15.40
2015,09,22,12,32,15.30
2015,09,22,12,33,15.10
2015,09,22,12,34,15.00
2015,09,22,12,35,15.00
2015,09,22,12,36,15.10
2015,09,22,12,37,15.00
2015,09,22,12,38,14.90
2015,09,22,12,39,15.00
2015,09,22,12,40,15.00
2015,09,22,12,41,15.10
2015,09,22,12,42,15.10
2015,09,22,12,43,15.20
2015,09,22,12,44,15.30
2015,09,22,12,45,15.50
2015,09,22,12,46,15.50
2015,09,22,12,47,15.40
2015,09,22,12,48,15.30
2015,09,22,12,49,15.20
2015,09,22,12,50,15.30
2015,09,22,12,51,15.20
2015,09,22,12,52,15.20
2015,09,22,12,53,15.20
2015,09,22,12,54,15.20
2015,09,22,12,55,15.30
2015,09,22,12,56,15.30
2015,09,22,12,57,15.30
2015,09,22,12,58,15.30
2015,09,22,12,59,15.30
2015,09,22,13,00,15.20
2015,09,22,13,01,15.10
2015,09,22,13,02,15.10
2015,09,22,13,03,15.10
2015,09,22,13,04,15.10
2015,09,22,13,05,15.10
2015,09,22,13,06,15.10
2015,09,22,13,07,15.10
2015,09,22,13,08,15.10
2015,09,22,13,09,15.10
2015,09,22,13,10,15.10
2015,09,22,13,11,15.10
2015,09,22,13,12,15.30
2015,09,22,13,13,15.40
2015,09,22,13,14,15.40
2015,09,22,13,15,15.40
2015,09,22,13,16,15.30
2015,09,22,13,17,15.30
2015,09,22,13,18,15.20
2015,09,22,13,19,15.20
2015,09,22,13,20,15.20
2015,09,22,13,21,15.30
2015,09,22,13,22,15.30
2015,09,22,13,23,15.40
2015,09,22,13,24,15.50
2015,09,22,13,25,15.60
2015,09,22,13,26,15.60
2015,09,22,13,27,15.70
2015,09,22,13,28,15.90
2015,09,22,13,29,15.90
2015,09,22,13,30,15.90
2015,09,22,13,31,15.90
2015,09,22,13,32,15.90
2015,09,22,13,33,15.90
2015,09,22,13,34,15.80
2015,09,22,13,35,15.80
2015,09,22,13,36,15.60
2015,09,22,13,37,15.60
2015,09,22,13,38,15.60
2015,09,22,13,39,15.80
2015,09,22,13,40,15.90
2015,09,22,13,41,16.20
2015,09,22,13,42,16.30
2015,09,22,13,43,16.30
2015,09,22,13,44,16.10
2015,09,22,13,45,16.00
2015,09,22,13,46,15.90
2015,09,22,13,47,16.00
2015,09,22,13,48,16.10
2015,09,22,13,49,16.20
2015,09,22,13,50,16.20
2015,09,22,13,51,16.20
2015,09,22,13,52,16.20
2015,09,22,13,53,16.20
2015,09,22,13,54,16.20
2015,09,22,13,55,16.30
2015,09,22,13,56,16.40
2015,09,22,13,57,16.40
2015,09,22,13,58,16.40
2015,09,22,13,59,16.50
2015,09,22,14,00,16.60
2015,09,22,14,01,16.50
2015,09,22,14,02,16.60
2015,09,22,14,03,16.60
2015,09,22,14,04,16.70
2015,09,22,14,05,16.70
2015,09,22,14,06,16.80
2015,09,22,14,07,16.90
2015,09,22,14,08,17.00
2015,09,22,14,09,17.00
2015,09,22,14,10,16.90
2015,09,22,14,11,16.80
2015,09,22,14,12,16.70
2015,09,22,14,13,16.70
2015,09,22,14,14,16.60
2015,09,22,14,15,16.50
2015,09,22,14,16,16.40
2015,09,22,14,17,16.40
2015,09,22,14,18,16.40
2015,09,22,14,19,16.30
2015,09,22,14,20,16.30
2015,09,22,14,21,16.30
2015,09,22,14,22,16.20
2015,09,22,14,23,16.10
2015,09,22,14,24,16.00
2015,09,22,14,25,16.00
2015,09,22,14,26,16.00
2015,09,22,14,27,15.90
2015,09,22,14,28,15.90
2015,09,22,14,29,16.00
2015,09,22,14,30,15.90
2015,09,22,14,31,15.80
2015,09,22,14,32,15.80
2015,09,22,14,33,15.90
2015,09,22,14,34,16.00
2015,09,22,14,35,16.30
2015,09,22,14,36,16.40
2015,09,22,14,37,16.40
2015,09,22,14,38,16.40
2015,09,22,14,39,16.30
2015,09,22,14,40,16.20
2015,09,22,14,41,16.20
2015,09,22,14,42,16.30
2015,09,22,14,43,16.40
2015,09,22,14,44,16.50
2015,09,22,14,45,16.50
2015,09,22,14,46,16.60
2015,09,22,14,47,16.70
2015,09,22,14,48,16.70
2015,09,22,14,49,16.60
2015,09,22,14,50,16.40
2015,09,22,14,51,16.40
2015,09,22,14,52,16.30
2015,09,22,14,53,16.30
2015,09,22,14,54,16.20
2015,09,22,14,55,16.00
2015,09,22,14,56,16.00
2015,09,22,14,57,16.10
2015,09,22,14,58,16.10
2015,09,22,14,59,16.10
2015,09,22,15,00,16.10
2015,09,22,15,01,16.00
2015,09,22,15,02,15.80
2015,09,22,15,03,15.80
2015,09,22,15,04,15.90
2015,09,22,15,05,16.10
2015,09,22,15,06,16.10
2015,09,22,15,07,16.20
2015,09,22,15,08,16.20
2015,09,22,15,09,16.10
2015,09,22,15,10,16.10
2015,09,22,15,11,16.10
2015,09,22,15,12,16.10
2015,09,22,15,13,16.00
2015,09,22,15,14,15.90
2015,09,22,15,15,15.80
2015,09,22,15,16,15.70
2015,09,22,15,17,15.70
2015,09,22,15,18,15.70
2015,09,22,15,19,15.80
2015,09,22,15,20,15.80
2015,09,22,15,21,15.80
2015,09,22,15,22,15.80
2015,09,22,15,23,15.80
2015,09,22,15,24,15.90
2015,09,22,15,25,15.90
2015,09,22,15,26,15.70
2015,09,22,15,27,15.50
2015,09,22,15,28,15.40
2015,09,22,15,29,15.30
2015,09,22,15,30,15.20
2015,09,22,15,31,15.20
2015,09,22,15,32,15.10
2015,09,22,15,33,15.10
2015,09,22,15,34,15.10
2015,09,22,15,35,15.10
2015,09,22,15,36,15.10
2015,09,22,15,37,15.10
2015,09,22,15,38,15.10
2015,09,22,15,39,15.10
2015,09,22,15,40,15.10
2015,09,22,15,41,15.10
2015,09,22,15,42,15.20
2015,09,22,15,43,15.20
2015,09,22,15,44,15.40
2015,09,22,15,45,15.40
2015,09,22,15,46,15.30
2015,09,22,15,47,15.10
2015,09,22,15,48,15.00
2015,09,22,15,49,15.10
2015,09,22,15,50,15.10
2015,09,22,15,51,15.00
2015,09,22,15,52,15.00
2015,09,22,15,53,14.90
2015,09,22,15,54,14.90
2015,09,22,15,55,15.00
2015,09,22,15,56,14.90
2015,09,22,15,57,14.90
2015,09,22,15,58,14.90
2015,09,22,15,59,14.80
2015,09,22,16,00,14.70
2015,09,22,16,01,14.70
2015,09,22,16,02,14.70
2015,09,22,16,03,14.80
2015,09,22,16,04,14.90
2015,09,22,16,05,14.90
2015,09,22,16,06,14.90
2015,09,22,16,07,14.90
2015,09,22,16,08,14.90
2015,09,22,16,09,14.90
2015,09,22,16,10,14.90
2015,09,22,16,11,14.90
2015,09,22,16,12,14.90
2015,09,22,16,13,14.80
2015,09,22,16,14,14.70
2015,09,22,16,15,14.60
2015,09,22,16,16,14.70
2015,09,22,16,17,14.70
2015,09,22,16,18,14.60
2015,09,22,16,19,14.60
2015,09,22,16,20,14.70
2015,09,22,16,21,14.80
2015,09,22,16,22,14.70
2015,09,22,16,23,14.70
2015,09,22,16,24,14.70
2015,09,22,16,25,14.80
2015,09,22,16,26,14.90
2015,09,22,16,27,15.10
2015,09,22,16,28,15.10
2015,09,22,16,29,15.00
2015,09,22,16,30,14.80
2015,09,22,16,31,14.80
2015,09,22,16,32,14.70
2015,09,22,16,33,14.70
2015,09,22,16,34,14.70
2015,09,22,16,35,14.60
2015,09,22,16,36,14.50
2015,09,22,16,37,14.50
2015,09,22,16,38,14.50
2015,09,22,16,39,14.60
2015,09,22,16,40,14.70
2015,09,22,16,41,14.80
2015,09,22,16,42,14.80
2015,09,22,16,43,14.70
2015,09,22,16,44,14.70
2015,09,22,16,45,14.70
2015,09,22,16,46,14.80
2015,09,22,16,47,14.70
2015,09,22,16,48,14.60
2015,09,22,16,49,14.60
2015,09,22,16,50,14.50
2015,09,22,16,51,14.60
2015,09,22,16,52,14.70
2015,09,22,16,53,14.60
2015,09,22,16,54,14.60
2015,09,22,16,55,14.50
2015,09,22,16,56,14.30
2015,09,22,16,57,14.20
2015,09,22,16,58,14.20
2015,09,22,16,59,14.20
2015,09,22,17,00,14.20
2015,09,22,17,01,14.20
2015,09,22,17,02,14.20
2015,09,22,17,03,14.10
2015,09,22,17,04,14.10
2015,09,22,17,05,14.10
2015,09,22,17,06,14.10
2015,09,22,17,07,14.10
2015,09,22,17,08,14.10
2015,09,22,17,09,14.10
2015,09,22,17,10,14.10
2015,09,22,17,11,14.10
2015,09,22,17,12,14.10
2015,09,22,17,13,14.10
2015,09,22,17,14,14.10
2015,09,22,17,15,14.10
2015,09,22,17,16,14.00
2015,09,22,17,17,14.00
2015,09,22,17,18,14.00
2015,09,22,17,19,14.10
2015,09,22,17,20,14.10
2015,09,22,17,21,14.00
2015,09,22,17,22,14.00
2015,09,22,17,23,14.10
2015,09,22,17,24,14.20
2015,09,22,17,25,14.30
2015,09,22,17,26,14.40
2015,09,22,17,27,14.50
2015,09,22,17,28,14.60
2015,09,22,17,29,14.60
2015,09,22,17,30,14.60
2015,09,22,17,31,14.60
2015,09,22,17,32,14.60
2015,09,22,17,33,14.60
2015,09,22,17,34,14.50
2015,09,22,17,35,14.50
2015,09,22,17,36,14.40
2015,09,22,17,37,14.40
2015,09,22,17,38,14.30
2015,09,22,17,39,14.30
2015,09,22,17,40,14.30
2015,09,22,17,41,14.30
2015,09,22,17,42,14.30